Theta_e
336 343 349 350 349 348 348 349 349 348 347 347 348 348 347 347 348 348 349 349 350 348 347 347 348 349 348 349 350 347 347 343 345 345 347 347 346 346 347 346 346 342 345
338 345 347 350 349 348 349 349 349 348 347 347 346 346 346 347 347 347 347 347 349 346 346 346 347 347 347 349 349 348 345 343 344 344 345 348 347 346 346 345 345 342 344
341 344 346 348 349 348 348 348 349 349 347 346 346 346 346 346 346 345 345 345 346 346 346 344 344 346 349 348 347 346 343 342 343 343 344 339 339 344 344 345 345 345 343
342 343 344 344 347 347 347 347 347 348 348 347 346 345 345 345 345 346 345 344 344 343 343 344 343 343 345 347 347 346 344 342 342 342 340 338 338 346 346 345 345 344 343
341 342 341 344 346 347 346 345 345 345 345 344 344 344 344 344 345 344 344 344 343 343 342 341 341 342 343 345 345 345 345 342 340 340 336 335 334 342 346 345 345 345 343
339 341 341 344 346 346 345 344 344 343 343 342 342 341 341 341 342 342 342 342 341 342 342 341 342 342 344 345 344 344 344 343 339 335 334 335 334 341 346 345 344 344 342
335 338 340 342 344 344 344 343 343 343 342 342 342 341 341 340 341 340 340 340 340 340 341 340 340 342 344 343 344 344 343 340 336 332 332 332 333 342 345 345 344 343 341
330 332 334 333 337 339 340 339 338 338 337 338 338 339 339 338 338 338 339 340 341 341 341 340 341 343 343 343 342 341 340 336 333 331 330 331 334 342 344 345 343 342 341
319 321 321 327 330 331 332 331 331 327 327 326 325 324 324 323 324 327 328 332 335 337 339 340 339 339 340 341 341 339 335 333 332 332 333 331 335 341 344 344 343 342 342
311 311 310 311 312 313 315 322 323 324 323 321 320 319 318 317 319 319 319 321 321 321 322 324 330 336 338 337 337 335 332 330 331 331 332 332 336 340 341 343 343 342 342
307 308 307 307 308 310 312 314 317 319 318 315 313 315 311 307 309 310 314 317 318 318 319 319 320 320 323 331 331 330 328 329 329 331 333 333 336 340 340 342 343 341 343
301 302 303 305 307 308 310 307 306 308 307 307 305 305 307 305 306 308 308 312 312 313 314 316 317 317 317 320 326 328 329 328 328 329 331 333 336 340 340 341 342 342 341
300 301 301 302 303 304 304 304 303 302 303 304 303 304 303 303 302 302 302 302 303 307 305 307 307 308 309 311 313 317 326 329 329 329 329 330 336 339 340 340 342 342 342
299 300 301 301 301 301 301 301 301 302 301 301 301 302 300 299 298 298 299 299 299 301 300 302 304 306 307 308 310 311 312 317 328 329 328 325 331 337 339 340 340 342 342
299 300 300 300 300 301 300 299 299 299 299 299 299 300 299 298 297 297 297 297 297 298 299 299 300 302 304 306 307 309 310 310 310 314 327 322 326 333 337 339 340 340 340
299 299 300 300 300 300 299 298 297 297 297 297 297 297 298 298 296 296 296 296 296 297 297 297 297 299 300 303 304 306 308 309 309 310 311 313 319 328 334 336 338 339 341
299 299 300 299 299 298 297 297 296 296 296 295 296 296 296 297 295 294 294 294 295 295 296 296 296 297 297 300 300 303 305 307 307 308 309 310 312 316 324 332 334 336 338
297 298 299 301 297 296 295 295 295 295 294 294 293 293 294 295 295 293 293 292 294 294 294 293 293 294 294 295 296 298 300 303 304 306 307 308 309 310 314 318 328 332 336
298 298 297 297 296 295 294 294 293 293 292 291 290 291 292 294 294 292 292 292 293 293 292 293 293 292 292 293 294 296 297 299 301 304 304 306 306 308 308 312 315 323 329
296 296 295 295 295 294 293 291 291 290 290 290 290 291 292 292 293 291 291 291 292 291 291 291 291 291 291 292 294 294 295 296 298 300 301 303 304 305 306 307 309 313 321
292 294 294 293 292 292 290 289 288 287 287 288 289 291 290 291 291 290 290 290 290 290 290 290 290 289 289 291 290 291 293 295 296 298 300 301 302 304 305 306 306 308 312
293 293 292 292 291 291 289 288 287 286 286 287 288 289 290 290 290 290 289 289 289 289 289 289 289 288 289 290 288 288 286 290 293 296 298 299 299 301 303 304 305 306 307
291 291 292 291 290 289 289 288 287 286 286 286 286 287 288 289 289 289 288 288 287 288 288 288 289 291 289 291 292 290 287 286 290 292 293 295 297 297 299 301 305 307 309
292 290 291 290 289 289 288 287 286 285 284 284 285 286 286 287 287 288 288 287 287 287 287 288 290 290 290 288 290 292 293 291 287 286 289 292 294 295 295 297 300 301 303
290 289 289 289 288 287 287 286 285 284 284 284 284 284 284 285 286 286 287 287 286 287 287 287 288 289 290 289 289 289 289 290 290 288 285 289 292 293 294 296 297 298 301
288 288 288 288 287 287 286 285 285 284 283 283 283 282 283 284 284 285 286 285 286 286 286 287 288 288 288 288 289 289 288 287 287 287 286 287 288 291 293 294 296 296 298
Wind_Speed
4 5 9 11 11 9 10 11 9 7 8 8 9 10 11 12 12 11 10 9 8 7 6 6 9 11 7 5 11 9 9 6 5 4 5 7 7 8 10 11 9 6 9
7 7 10 10 11 10 10 9 8 8 8 8 8 8 9 10 11 10 10 10 8 6 6 6 6 8 6 7 8 8 7 7 7 6 5 8 8 9 10 12 12 9 10
8 7 7 11 11 11 10 9 8 8 9 8 8 8 8 8 8 8 8 8 8 8 7 5 2 5 6 7 7 8 7 6 5 5 5 3 5 10 11 11 12 14 14
9 7 6 9 10 10 9 9 8 8 8 8 7 7 7 6 6 6 6 6 5 5 5 5 5 4 3 5 7 8 7 8 8 8 4 4 4 11 14 14 13 12 12
9 7 6 9 9 10 9 8 7 7 7 7 6 5 5 5 4 4 4 3 3 3 3 3 2 1 2 4 5 7 6 6 7 6 4 4 4 8 14 15 15 14 10
8 8 6 9 9 9 8 8 7 6 5 5 4 4 3 3 2 1 1 1 2 3 4 5 5 6 5 5 5 6 7 8 8 5 4 5 5 10 15 16 14 12 11
8 6 6 8 9 9 9 8 8 8 7 6 5 4 3 3 3 3 3 3 3 4 5 6 7 7 6 6 7 8 8 8 5 5 5 5 5 14 16 17 18 16 16
9 6 6 7 6 7 7 7 7 8 8 8 9 9 9 9 9 8 8 9 8 7 7 7 8 9 8 8 8 9 10 9 6 6 6 5 9 15 18 19 18 19 19
7 7 5 6 6 10 11 10 10 11 12 12 12 13 13 13 12 11 11 10 11 11 12 11 9 10 11 11 10 9 9 9 6 5 7 5 11 18 20 22 19 20 20
7 7 6 6 6 6 5 10 11 12 12 13 13 12 12 12 12 12 11 13 13 14 15 16 15 15 13 11 11 10 9 9 7 5 6 6 14 19 22 23 20 20 22
4 5 5 6 6 6 6 6 8 10 11 11 10 10 8 5 6 8 11 14 15 16 15 15 16 16 16 12 10 10 9 4 5 4 5 10 16 20 22 24 21 22 22
6 4 5 6 6 5 4 5 5 5 5 5 6 6 4 5 5 6 7 11 13 13 15 16 16 15 10 5 6 7 4 5 5 6 6 13 19 22 24 24 23 21 23
6 4 6 6 5 6 5 3 3 3 3 4 6 6 5 4 4 4 4 4 4 8 4 7 7 4 7 5 6 5 8 7 5 6 9 14 20 24 25 25 24 22 23
7 7 7 7 6 5 4 3 3 3 3 3 4 6 4 3 4 4 3 4 4 3 5 4 3 6 6 6 7 8 7 7 7 5 8 14 19 24 26 27 26 24 23
8 7 7 7 7 6 6 3 3 3 4 3 4 5 4 4 4 4 4 4 4 4 4 5 5 5 6 6 6 7 8 8 8 7 7 12 17 23 27 28 27 28 26
8 8 7 7 7 6 5 5 3 3 3 4 4 4 5 3 3 3 4 4 4 4 4 4 4 5 6 6 8 8 8 7 8 8 7 9 17 20 24 29 29 30 29
9 8 8 8 7 7 7 5 4 3 3 4 3 4 5 4 5 4 4 4 4 4 5 4 5 5 5 5 7 7 7 8 8 8 7 7 10 16 18 25 29 29 29
9 10 8 7 8 7 6 4 4 3 3 3 2 3 5 5 5 4 3 4 4 4 4 4 4 5 5 6 7 7 7 8 9 9 8 8 7 8 11 19 23 29 29
12 11 9 8 8 7 6 5 4 4 4 2 3 3 5 5 5 4 4 4 4 4 4 4 4 4 6 7 8 8 7 8 9 8 10 10 9 9 7 14 19 19 26
9 9 8 6 8 7 5 4 3 3 2 2 3 4 5 4 5 4 4 4 4 4 4 4 5 4 5 7 9 10 9 9 9 10 11 10 11 11 10 10 8 9 15
8 10 9 9 7 5 2 3 2 1 1 1 3 5 5 4 5 5 4 5 4 4 5 5 5 6 5 4 7 4 6 10 10 7 7 7 7 7 7 8 6 6 9
14 10 9 8 7 4 3 2 2 2 1 1 1 4 5 6 5 6 5 4 4 5 5 5 4 4 3 3 4 7 5 4 3 4 3 4 5 4 5 6 7 9 9
13 13 10 9 8 6 7 4 3 2 1 3 3 3 3 5 5 5 5 4 4 4 4 5 5 5 6 3 3 3 5 5 12 3 3 3 4 4 4 5 8 7 7
13 8 9 9 8 7 7 4 4 3 2 1 1 2 4 5 5 5 5 5 5 4 5 4 5 6 6 7 4 5 5 7 5 9 3 10 12 9 6 5 6 9 10
11 10 8 8 8 7 6 6 5 4 2 0 2 4 4 4 5 5 5 5 5 4 4 5 6 6 5 6 5 5 6 7 9 8 15 9 4 4 6 7 7 7 9
7 9 8 9 7 7 7 6 6 6 3 0 2 3 3 3 3 4 5 5 5 4 5 4 6 7 7 7 6 6 6 6 6 7 11 13 14 9 8 9 10 9 10
Wind_Direction
179 169 146 141 140 134 136 142 135 124 111 99 95 93 91 89 82 75 73 86 99 106 116 138 159 163 158 179 171 170 156 155 158 156 153 154 158 149 145 142 140 134 128
154 161 151 147 140 132 129 134 135 133 126 116 105 98 93 92 91 85 77 66 66 81 105 134 167 187 169 143 157 156 166 171 177 180 170 163 165 162 160 149 143 149 141
149 139 149 144 139 133 127 121 122 132 139 129 120 112 104 95 94 91 89 77 68 62 56 55 74 199 201 185 175 175 181 187 188 186 178 158 170 176 176 163 158 156 150
132 122 125 140 140 136 130 124 120 118 123 128 123 119 112 105 98 92 80 67 56 56 53 47 36 11 312 236 202 198 192 186 188 189 185 181 204 193 179 176 174 173 170
111 118 128 139 142 135 135 133 128 120 119 119 116 111 104 100 92 75 75 63 46 29 0 350 337 341 304 281 244 219 213 210 207 201 193 203 211 216 192 193 188 181 180
96 100 122 128 132 136 134 138 134 127 121 115 115 113 108 98 96 90 78 66 351 321 314 305 302 303 318 286 278 256 231 218 220 223 221 225 221 231 215 203 206 183 177
98 100 110 110 115 117 115 115 113 109 98 90 82 74 67 48 24 7 351 329 309 298 295 293 288 287 286 291 287 267 258 248 224 226 224 219 229 234 235 216 207 198 189
119 94 88 91 112 112 112 115 116 105 95 83 77 75 67 58 46 34 21 6 353 337 317 303 300 297 279 274 270 269 257 241 225 224 234 227 228 235 239 240 216 209 200
101 100 86 89 81 80 83 82 87 88 83 78 73 71 67 61 55 49 40 33 17 359 350 330 318 325 308 284 277 272 272 259 241 233 228 221 232 240 241 244 225 213 212
100 103 108 98 97 92 91 95 90 85 80 73 64 59 53 48 43 37 33 25 23 15 7 3 355 341 318 324 305 286 275 273 260 240 240 241 225 239 244 246 238 221 217
106 126 122 115 107 105 99 83 76 74 70 66 55 50 43 36 27 25 17 16 11 4 358 354 350 347 343 322 298 295 288 263 255 242 237 240 243 246 244 246 245 234 221
153 154 142 130 128 110 95 85 77 66 63 60 48 42 42 39 26 28 16 14 6 358 353 347 343 340 342 333 325 302 276 260 252 252 248 241 245 249 249 246 242 240 230
162 145 156 145 135 120 107 93 69 61 57 47 40 39 34 27 17 17 7 6 2 355 354 346 342 339 329 323 313 311 310 282 260 252 249 234 242 251 250 249 245 240 232
158 160 158 146 131 119 106 91 85 68 54 44 35 32 33 18 9 5 3 357 3 348 344 341 332 322 318 314 304 302 296 303 300 263 250 243 241 246 251 249 245 244 236
166 164 167 151 142 135 114 103 84 69 60 47 33 26 28 18 4 349 352 350 347 350 348 340 332 322 314 306 300 289 291 288 287 297 301 269 244 243 250 251 247 245 242
161 169 161 159 147 137 123 114 100 85 73 52 33 18 20 17 359 359 344 343 346 346 334 327 316 310 308 300 298 291 282 278 278 282 286 295 298 276 257 256 251 249 247
176 157 165 156 149 133 127 115 95 70 69 60 42 29 24 16 5 351 336 334 320 322 330 329 320 311 311 309 299 295 289 283 277 272 272 277 290 289 293 265 269 261 251
149 166 160 155 144 133 127 116 103 83 79 77 58 32 23 9 358 344 337 322 317 325 326 333 316 313 300 298 302 293 284 275 273 272 272 269 269 277 287 290 283 268 259
163 156 159 149 146 137 123 112 102 94 84 52 53 34 13 7 356 356 333 313 325 332 329 319 317 303 308 304 298 293 281 273 271 270 263 260 259 262 264 277 277 277 262
157 154 145 143 140 130 115 99 82 91 76 74 39 47 27 10 359 345 330 334 346 328 312 309 300 296 288 292 298 290 275 269 261 253 255 256 253 252 255 261 269 278 269
148 145 153 147 153 135 114 119 104 166 306 41 40 29 13 5 354 349 344 341 329 321 301 297 306 310 314 306 300 296 269 250 256 263 263 262 264 265 266 273 278 277 275
162 160 154 153 152 143 121 135 128 153 188 150 42 11 9 4 348 334 338 326 327 319 309 297 293 303 293 322 314 295 320 329 8 288 270 276 268 282 288 285 280 280 280
168 167 161 156 149 143 128 115 95 84 43 34 19 3 360 340 331 326 324 317 319 315 313 306 286 294 297 310 287 292 318 302 341 294 302 310 342 337 300 286 288 286 294
176 154 148 149 146 144 144 131 133 136 122 229 302 310 326 335 326 316 307 310 308 295 287 285 308 322 311 300 301 263 269 304 313 309 311 331 315 308 308 311 303 302 298
159 159 151 144 144 142 144 143 140 134 146 218 313 322 316 314 307 306 307 298 287 283 281 291 299 301 299 293 282 282 276 273 273 279 294 293 284 294 312 318 322 317 307
139 145 152 149 151 151 149 147 145 144 160 281 313 302 312 299 306 321 313 291 281 286 286 299 300 290 287 282 280 278 270 274 278 283 292 297 292 294 295 296 297 306 302